Regional Weather Roundup
Issued by NWS

Home | Current Version | Previous Version | Graphics & Text | Print | Product List | Glossary On
Versions: 1 2 3 4 5 6 7 8 9 10 11 12 13 14 15 16 17 18 19 20 21 22 23 24 25 26 27 28 29 30 31 32 33 34 35 36 37 38 39 40 41 42 43 44 45 46 47 48 49 50
000
ASUS43 KOAX 271510
RWRNE

WEATHER ROUNDUP FOR NEBRASKA
NATIONAL WEATHER SERVICE OMAHA NE
1000 AM CDT SAT AUG 27 2016

NOTES: SATELLITE DATA IS BEING USED TO AUGMENT CLOUD COVER ABOVE
       12000 FEET.
       "FAIR" INDICATES FEW OR NO CLOUDS BELOW 12,000 FEET WITH NO
       SIGNIFICANT WEATHER AND/OR OBSTRUCTIONS TO VISIBILITY.

  * THESE STATIONS DO NOT REPORT WEATHER SUCH AS RAIN...SNOW OR FOG.

NEZ001>004-019>022-054>056-271600-
NEBRASKA PANHANDLE

CITY           SKY/WX    TMP DP  RH WIND       PRES   REMARKS
SCOTTSBLUFF    CLOUDY    55  54  96 SE6       30.08S FOG
ALLIANCE       CLOUDY    57  55  93 SW6       30.07S
CHADRON        SUNNY     62  54  74 S12       30.03F
KIMBALL        CLOUDY    60  54  80 W3        30.12S
SIDNEY         CLOUDY    56  55  97 S5        30.10F FOG
$$

NEZ057>060-069>072-079>082-271600-
SOUTHWEST NEBRASKA

CITY           SKY/WX    TMP DP  RH WIND       PRES   REMARKS
NORTH PLATTE   MOSUNNY   61  56  83 VRB3      30.09R
IMPERIAL       PTSUNNY   60  56  86 S6        30.09F
LEXINGTON      SUNNY     64  58  79 CALM      30.08S
MCCOOK         SUNNY     63  58  83 S6        30.07F
OGALLALA       SUNNY     64  60  88 SW5       30.07S
$$

NEZ005>010-023>029-035>040-094-271600-
NORTH CENTRAL NEBRASKA

CITY           SKY/WX    TMP DP  RH WIND       PRES   REMARKS
VALENTINE      SUNNY     64  57  78 S10       30.03F
AINSWORTH      SUNNY     64  59  85 W5        30.05S
BROKEN BOW     SUNNY     64  58  80 CALM      30.06F
O`NEILL        CLOUDY    64  62  95 S8        30.04F
ORD            MOSUNNY   66  60  81 E5        30.04F
THEDFORD       SUNNY     62  61  97 SW6       30.07S
$$

NEZ041-046>049-061>064-073>077-083>087-271600-
SOUTH CENTRAL NEBRASKA

CITY           SKY/WX    TMP DP  RH WIND       PRES   REMARKS
GRAND ISLAND   SUNNY     67  60  78 NW6       30.06S
AURORA         CLOUDY    64  64 100 NW3       30.05S
HASTINGS       SUNNY     69  58  67 NW7       30.06S
HEBRON         MOSUNNY   69  66  92 CALM      30.05R
HOLDREGE       SUNNY     65  59  79 NW3       30.07F
KEARNEY *      SUNNY     66  59  77 NW3       30.07R
YORK           MOSUNNY   68  64  88 CALM      30.06S
$$

NEZ011>018-030>034-042>045-271600-
NORTHEAST NEBRASKA

CITY           SKY/WX    TMP DP  RH WIND       PRES   REMARKS
NORFOLK        PTSUNNY   70  63  78 N3        30.03F
ALBION         CLOUDY    65  63  93 NW3       30.04F
BLAIR          CLOUDY    68  67  98 W3        30.04R
FREMONT        CLOUDY    68  67  96 CALM      30.03F
TEKAMAH        CLOUDY    67  66  97 SE3       30.03S FOG
WAYNE          PTSUNNY   68  64  85 CALM      30.03F
$$

NEZ050>053-065>068-078-088>093-271600-
SOUTHEAST NEBRASKA

CITY           SKY/WX    TMP DP  RH WIND       PRES   REMARKS
LINCOLN        CLOUDY    73  65  75 NW5       30.04S
OMAHA EPPLEY   CLOUDY    72  67  84 CALM      30.02S
BEATRICE       CLOUDY    70  67  89 CALM      30.04R
FALLS CITY     SUNNY     74  68  81 W5        30.02S
NEBRASKA CITY  CLOUDY    71  70  96 W6        30.04R
PLATTSMOUTH    CLOUDY    72  69  89 W5        30.04R
$$

NEZ044-045-051>053-067-271600-
OMAHA AREA

CITY           SKY/WX    TMP DP  RH WIND       PRES   REMARKS
OMAHA EPPLEY   CLOUDY    72  67  84 CALM      30.02S
BLAIR          CLOUDY    68  67  98 W3        30.04R
FREMONT        CLOUDY    68  67  96 CALM      30.03F
MILLARD        CLOUDY    72  67  85 NW6       30.03S
OFFUTT AFB     MOSUNNY   73  70  88 NW8       30.02S
PLATTSMOUTH    CLOUDY    72  69  89 W5        30.04R
WAHOO          FAIR      69  67  93 CALM      30.03F
$$



USA.gov is the U.S. government's official web portal to all federal, state and local government web resources and services.